Theta_e
311 307 307 307 307 307 307 307 307 307 307 307 307 308 309 309 311 311 313 313 314 315 316 317 317 317 318 317 317 318 318 319 319 320 320 319 319 318 315 315 315 314 313 312 310 308 307 306 305 304 303 302 302 301 301 301 301 301 300 299 299 298 298 299 299 298 295 293 294 295 295 295 295 296 295 297 297 297 296 295 296 296 296 296 296
307 306 305 305 305 305 305 305 305 303 304 304 305 306 307 308 308 310 312 311 312 313 315 316 316 316 316 316 317 317 317 316 316 317 318 318 317 316 314 314 314 312 311 311 310 309 307 305 304 303 302 301 301 302 302 300 301 301 300 297 299 297 297 299 298 296 293 292 291 292 292 293 294 294 294 294 296 296 296 295 296 295 295 295 295
304 304 304 303 303 303 302 302 303 303 303 304 304 304 305 306 308 309 310 310 310 311 312 313 315 316 316 315 316 315 317 317 316 316 316 315 315 314 313 313 312 311 310 310 309 308 307 305 303 302 301 301 300 300 300 300 300 300 299 296 295 297 297 299 297 296 293 295 295 292 290 290 292 291 293 293 294 295 295 295 295 295 294 295 294
301 301 301 301 301 300 300 300 301 302 302 302 303 303 304 304 306 307 308 309 309 310 309 312 313 314 315 315 314 314 312 313 313 313 313 312 311 311 312 312 311 310 309 309 308 307 306 304 303 302 301 300 300 299 300 300 299 299 299 298 297 293 295 295 298 296 296 295 290 291 292 291 289 289 290 292 294 294 294 294 294 294 294 295 294
300 300 300 300 299 299 299 299 300 299 300 301 302 302 302 303 304 306 306 307 308 308 309 309 311 311 312 311 310 310 309 308 308 308 309 309 309 309 309 310 310 309 309 307 306 306 306 304 303 301 300 300 299 299 299 300 299 299 299 297 296 295 293 295 296 297 297 299 296 292 293 290 290 295 290 290 292 292 293 293 294 293 292 292 292
298 298 298 298 298 298 298 298 298 298 298 299 301 302 302 302 303 304 305 306 305 307 307 307 308 307 307 306 305 305 305 306 305 305 306 306 306 309 309 309 309 308 308 307 306 305 305 304 303 301 300 299 299 298 299 300 299 299 298 298 297 297 296 294 294 295 297 300 303 302 301 293 293 293 291 287 290 292 292 293 293 293 292 292 292
298 298 297 297 297 297 296 296 297 297 297 299 300 300 301 301 302 303 303 304 304 305 306 306 306 306 306 306 306 305 304 306 307 308 307 307 308 307 307 307 307 307 307 307 306 304 304 304 303 301 300 299 299 298 298 299 299 299 299 297 297 297 298 293 293 293 295 297 300 301 298 296 299 293 290 292 286 289 291 291 291 293 292 292 292
297 296 296 296 296 296 295 296 296 296 298 299 299 299 299 299 299 300 301 301 302 303 304 305 304 305 305 305 304 304 304 304 305 305 306 305 305 305 305 305 305 305 305 306 305 304 303 303 302 301 300 300 299 297 297 299 300 300 299 298 298 296 297 295 294 294 291 292 296 296 296 297 296 299 304 295 294 287 287 291 292 292 292 292 292
295 295 295 295 295 295 295 295 296 297 297 297 298 298 298 298 298 298 299 299 300 301 302 303 303 303 303 303 303 304 304 304 304 305 304 304 303 303 303 303 303 304 304 304 304 304 302 302 302 301 300 299 298 298 298 299 299 299 298 297 297 296 296 296 296 294 293 292 293 293 295 295 295 297 300 300 297 292 290 288 288 291 291 291 291
295 295 295 295 295 295 295 296 295 296 296 298 298 298 297 298 297 297 297 298 298 299 300 301 302 302 302 302 302 302 303 303 304 303 303 303 302 302 302 302 302 302 302 303 303 303 302 301 301 301 300 299 298 298 298 298 299 299 298 297 297 296 296 296 296 296 294 293 294 294 292 293 293 293 294 294 295 299 294 288 290 287 286 289 291
294 294 294 294 295 295 295 294 295 295 296 296 296 296 296 296 296 296 296 297 297 298 298 299 300 301 301 301 301 301 301 302 301 302 302 302 301 301 301 301 301 301 301 301 302 302 302 301 301 301 300 299 298 298 297 297 298 299 299 298 296 296 296 296 296 297 296 294 294 293 293 293 291 290 290 291 292 291 291 292 291 290 290 289 289
293 293 293 293 294 294 294 293 293 294 294 294 295 295 295 295 296 295 295 296 296 296 297 297 297 298 298 299 299 300 300 300 299 299 300 300 301 301 301 301 300 301 300 300 300 301 301 300 300 300 299 299 298 298 297 297 297 298 298 297 296 297 297 296 296 296 297 295 295 295 294 294 294 293 294 294 293 291 292 291 292 292 291 292 292
292 292 292 292 292 292 292 292 293 292 292 293 293 294 294 294 294 294 294 295 296 296 296 296 296 296 296 296 297 298 298 299 299 299 300 299 300 300 300 299 300 299 299 298 299 300 300 299 299 299 298 299 299 298 297 297 297 297 297 297 296 295 295 295 295 295 296 295 294 296 295 295 294 295 295 295 295 294 293 290 293 293 289 289 290
292 292 292 292 292 292 292 292 292 292 292 292 293 293 293 293 293 293 293 294 295 295 295 295 295 295 295 295 296 296 296 296 297 297 298 298 299 299 299 299 299 299 300 299 299 300 299 299 299 299 299 299 298 298 298 297 297 296 296 296 295 295 295 295 294 294 295 296 296 296 294 294 294 295 295 296 294 293 291 291 291 290 291 289 288
292 291 291 291 291 292 292 292 292 292 292 292 292 292 293 292 292 292 292 293 293 294 294 294 295 295 295 295 295 295 295 295 295 296 296 296 297 297 298 298 298 299 299 300 301 300 299 299 299 298 298 298 298 298 298 297 297 296 295 295 295 295 294 294 293 293 293 294 295 295 295 294 295 295 295 295 296 295 293 292 291 287 288 288 285
291 290 290 291 291 292 291 291 291 291 291 291 291 291 291 292 292 292 292 292 292 293 293 293 294 294 294 294 294 294 294 294 294 295 295 295 296 296 296 296 297 298 299 299 300 300 299 299 298 298 298 298 298 297 297 296 296 295 294 294 294 295 293 293 293 293 293 293 294 294 294 294 294 295 295 295 296 296 295 295 293 290 287 284 285
289 289 289 290 290 290 291 290 291 291 291 290 290 290 290 290 291 291 291 291 292 292 292 293 293 293 293 293 293 293 293 293 293 293 293 294 295 295 295 295 296 296 297 298 299 299 299 299 298 297 297 297 297 297 296 295 295 294 293 293 292 293 293 293 293 292 292 293 293 293 293 293 293 294 294 295 295 295 295 294 294 292 290 287 284
288 288 288 289 289 289 289 290 290 290 290 291 291 291 291 290 290 290 290 290 291 291 291 292 292 292 292 292 292 292 293 293 293 292 293 293 293 293 294 294 294 296 296 297 297 297 298 297 297 296 296 296 296 296 295 295 294 294 293 293 293 293 292 292 292 292 292 292 292 292 292 292 292 293 293 293 293 294 293 293 294 293 293 289 288
288 287 287 287 287 287 288 288 289 289 290 290 290 290 290 290 290 290 289 290 290 291 291 291 292 292 292 291 291 291 292 292 292 293 293 292 292 292 292 293 293 294 294 294 295 295 295 296 296 295 295 295 295 295 295 294 294 293 293 292 292 292 291 291 291 291 291 291 290 290 291 291 292 292 292 292 292 292 292 292 292 293 292 291 290
287 287 287 287 287 287 287 287 288 288 288 289 289 289 288 289 289 289 289 289 289 290 290 290 291 291 291 290 290 291 291 291 291 291 291 291 291 291 291 291 292 292 292 292 293 293 294 294 294 295 294 294 294 294 294 294 293 292 292 291 291 291 290 290 290 290 291 290 290 289 290 290 291 291 291 291 291 291 291 291 291 291 291 291 290
287 287 286 287 286 287 287 289 289 289 289 289 289 288 288 288 287 287 286 287 287 289 289 289 289 289 289 289 289 289 289 290 290 291 289 290 290 291 291 291 291 291 292 291 291 292 292 292 293 293 293 293 293 293 293 293 292 291 291 291 291 290 289 289 289 289 289 289 289 289 289 289 290 289 290 290 290 290 290 290 290 290 290 290 290
286 286 286 286 288 289 289 289 290 290 290 290 290 290 289 289 289 287 287 287 287 287 288 288 289 288 288 288 288 289 289 289 288 289 289 289 289 290 290 290 290 291 291 291 291 291 292 292 292 292 292 292 292 292 292 292 291 291 290 291 291 290 289 289 289 288 289 289 289 288 288 288 289 289 289 289 289 289 289 289 289 289 289 289 290
286 286 286 287 289 288 287 288 288 289 289 289 289 288 288 288 288 288 287 287 288 288 288 288 288 287 287 288 288 287 287 287 287 288 287 288 288 289 289 289 289 290 291 291 290 290 290 290 290 291 291 291 292 292 292 291 291 290 290 290 290 289 289 288 288 288 288 288 288 288 288 288 289 288 288 288 289 288 289 288 288 288 288 288 288
287 287 287 287 289 290 287 287 288 288 289 289 289 288 288 288 288 287 287 287 288 288 288 288 288 287 288 287 287 287 286 285 286 287 286 287 287 288 288 288 289 289 288 289 290 290 290 290 289 289 290 290 290 291 291 291 290 289 289 289 289 289 289 288 288 288 288 288 287 287 287 287 287 287 287 287 287 288 287 287 287 287 287 287 287
286 286 286 286 286 286 286 287 287 287 288 289 289 288 288 288 288 287 286 287 287 288 287 288 287 287 287 287 287 286 286 286 286 286 286 287 286 286 287 287 287 287 288 288 289 289 289 289 289 289 289 289 289 290 290 290 290 289 289 289 289 289 288 288 288 288 288 288 287 287 287 287 287 286 286 286 287 286 287 287 287 287 287 287 286
285 285 285 285 285 286 286 286 286 286 287 287 288 288 288 288 287 287 286 286 286 287 286 287 286 286 286 286 287 287 286 285 285 286 287 287 286 286 286 286 286 286 287 287 288 288 288 288 288 288 288 288 289 289 289 289 289 289 289 289 289 288 288 288 288 288 288 288 288 287 287 287 287 286 286 286 286 286 286 286 286 286 286 286 286
284 285 285 285 285 285 286 286 286 286 286 286 287 287 287 287 287 287 287 286 286 286 286 285 286 285 285 285 286 286 286 286 286 285 286 287 287 287 286 285 285 285 285 286 286 286 287 287 287 287 287 287 287 288 288 289 289 289 289 288 288 288 288 288 287 287 287 287 287 287 287 287 287 287 286 286 286 286 286 285 286 286 286 285 285
285 284 284 284 285 285 285 285 285 286 286 286 286 287 287 287 286 287 287 286 286 285 285 285 285 285 285 285 285 286 286 286 286 286 286 286 286 286 286 286 286 285 285 285 285 285 285 286 286 287 287 287 287 286 287 287 288 288 288 288 287 287 287 287 287 287 287 287 287 287 287 287 287 287 287 287 286 286 286 285 286 286 285 285 284
283 284 284 284 284 284 285 285 285 285 285 285 286 286 287 287 287 286 286 286 286 285 284 284 284 284 284 284 285 285 286 286 285 285 285 286 286 286 285 285 285 285 286 285 285 285 284 285 285 286 286 287 286 286 286 286 286 286 287 287 287 287 286 286 286 286 287 287 287 287 287 287 287 287 287 287 287 287 286 285 285 285 285 284 284
283 283 284 284 284 284 285 285 285 285 285 285 285 285 286 286 286 286 286 286 285 284 283 283 283 283 284 284 284 284 284 284 284 284 284 285 285 286 285 284 284 284 285 285 285 285 284 284 284 284 285 286 286 287 287 288 288 286 286 286 286 286 286 286 286 286 286 286 286 286 287 286 286 286 286 287 288 288 288 286 286 285 285 284 284
284 284 283 284 284 285 285 285 285 285 285 285 285 286 286 286 286 286 285 285 285 283 283 283 282 283 283 283 283 283 283 283 283 283 282 283 285 285 284 284 284 284 283 283 284 284 285 285 285 284 284 285 285 286 288 290 290 290 288 286 286 286 286 286 286 285 285 285 286 286 286 286 286 285 286 287 288 288 288 288 288 287 287 285 284
285 284 283 283 283 284 284 284 284 285 285 285 285 285 285 285 285 285 285 285 284 283 282 282 282 283 283 282 282 282 282 282 282 281 281 282 283 284 283 283 282 282 282 282 282 282 283 284 284 285 285 285 285 286 288 289 290 290 289 287 286 286 285 285 285 285 285 285 285 285 286 286 286 286 285 285 286 287 288 288 288 288 288 288 288
285 284 284 284 284 284 284 284 285 285 285 285 285 285 284 285 285 285 285 284 283 282 282 282 282 282 282 282 282 281 281 281 281 281 280 280 281 282 282 281 281 281 281 280 280 281 282 283 283 284 284 284 284 286 287 288 288 289 289 289 287 286 286 285 285 285 285 285 285 285 285 285 286 285 285 285 285 284 286 287 287 287 287 288 288
286 286 284 284 284 284 285 285 285 286 286 286 286 285 285 286 285 285 284 283 283 282 282 281 281 281 281 281 281 281 280 280 281 280 279 279 279 280 281 281 280 279 279 279 279 279 280 282 283 283 283 283 284 285 286 287 287 288 288 288 286 286 286 286 286 285 285 285 285 285 284 284 285 285 285 284 284 284 284 284 285 285 285 285 287
284 285 285 284 284 284 284 285 285 285 285 286 285 285 285 284 284 283 283 282 282 281 281 281 280 281 281 281 280 280 280 280 280 279 278 277 278 278 279 279 278 278 277 277 277 277 279 280 281 282 282 282 283 285 286 286 287 287 288 288 286 286 286 286 286 286 286 285 285 285 285 284 284 284 285 285 284 283 283 283 283 283 283 283 283
284 284 285 285 284 284 284 284 286 285 285 285 284 284 283 282 283 282 281 281 281 281 280 280 280 280 280 280 280 279 279 279 279 278 277 276 277 277 277 278 277 276 276 276 276 277 278 278 279 280 281 281 282 284 285 286 287 287 287 286 285 285 285 285 285 286 286 286 286 285 285 285 284 284 285 287 286 284 283 282 282 282 282 282 282
285 285 285 286 286 285 285 285 284 284 283 283 283 282 281 281 280 279 279 279 279 279 279 280 279 279 279 279 279 278 278 278 278 277 276 275 275 275 276 277 275 274 274 274 274 275 276 277 278 279 279 280 281 283 285 285 286 286 286 284 284 284 284 284 285 285 286 286 286 285 285 284 284 284 285 287 288 286 282 281 281 281 281 281 281
284 284 285 285 286 285 284 283 282 282 282 282 282 281 280 279 278 278 278 278 278 278 278 278 278 278 278 278 278 278 277 277 277 275 275 275 275 275 275 275 273 272 272 272 273 274 275 276 277 277 278 279 279 281 284 284 285 285 285 283 283 283 283 284 284 285 286 286 286 285 285 285 284 284 286 287 288 286 282 281 281 280 280 280 280
284 284 283 283 282 282 282 282 281 280 280 280 280 279 278 277 276 276 276 276 276 276 277 277 277 277 277 277 277 277 276 276 275 274 274 273 273 273 274 273 272 272 271 272 272 272 273 274 274 275 277 277 278 280 283 283 284 284 284 283 283 282 282 282 283 283 285 285 285 286 285 285 285 285 286 287 287 286 282 281 281 280 279 279 279
284 284 282 282 282 281 280 280 279 279 280 279 278 278 276 275 275 275 274 274 274 275 276 275 275 276 276 275 275 274 274 274 273 273 273 272 273 272 272 271 271 271 270 270 271 271 270 271 272 273 274 275 275 276 279 282 283 284 285 283 283 282 281 281 282 283 283 284 285 285 286 287 288 288 287 287 286 287 283 282 281 280 279 278 280
283 281 282 281 280 279 278 278 278 278 278 277 276 275 274 273 273 272 272 273 273 274 273 273 274 274 274 273 273 273 272 272 272 271 271 271 271 271 270 269 269 269 269 269 269 269 269 269 270 270 271 272 274 275 277 280 282 283 284 284 282 281 281 281 282 282 283 283 283 284 284 286 287 288 287 286 286 287 286 283 281 280 281 281 282
282 282 280 279 278 278 277 277 277 276 275 274 274 272 271 271 270 270 271 272 272 272 271 271 271 271 271 271 270 270 270 269 270 270 269 269 269 269 269 268 268 268 267 267 267 267 267 268 269 269 270 271 273 275 275 278 281 283 284 284 282 281 282 281 281 281 282 282 283 284 284 285 286 287 287 286 286 286 287 284 282 284 284 284 281
279 279 279 277 276 275 275 274 274 273 273 272 271 269 269 269 268 269 270 270 269 269 268 268 268 268 267 266 266 266 266 267 267 267 267 267 267 267 267 267 266 266 266 265 266 266 266 266 267 269 270 271 273 275 278 278 281 282 284 284 284 283 284 283 281 280 281 282 283 284 284 285 285 285 286 287 286 286 286 285 285 285 285 284 283
278 278 277 275 273 273 272 271 271 271 271 270 269 267 267 266 266 268 267 267 266 266 265 265 264 264 263 263 263 263 264 264 264 264 264 264 264 265 265 265 265 265 265 264 265 265 266 266 266 267 269 271 272 274 277 279 280 282 283 284 285 285 285 282 282 281 282 282 283 283 284 286 285 285 285 286 286 285 284 285 286 285 285 284 281
276 275 274 272 270 269 269 268 269 269 268 268 267 265 264 264 265 266 265 264 264 263 262 262 261 261 261 261 261 261 261 262 262 262 262 262 262 263 263 264 264 264 264 264 264 265 265 265 266 266 267 269 271 273 274 277 280 281 283 283 284 284 285 285 283 282 283 283 284 285 286 286 285 284 285 285 285 285 285 285 285 285 284 282 280
274 273 271 269 269 267 266 266 266 266 266 266 265 264 262 263 264 264 263 263 262 261 260 260 260 260 260 260 260 260 260 261 261 262 262 262 262 262 262 262 263 263 263 263 263 264 264 264 265 266 267 269 271 272 273 276 279 280 281 282 283 283 283 284 284 283 284 284 285 285 285 285 284 284 283 282 282 282 284 284 284 284 283 281 280
271 270 269 267 266 265 264 264 263 264 264 264 263 263 263 263 262 263 262 262 261 260 259 259 259 259 260 260 259 259 260 260 261 261 261 262 262 262 262 262 262 262 262 262 262 263 263 264 264 265 266 268 269 271 273 275 277 278 278 279 280 280 282 283 282 282 282 282 283 284 284 284 283 283 283 283 283 283 282 282 282 283 282 281 280
269 268 267 265 264 263 262 262 261 262 263 262 262 262 262 262 262 262 261 261 260 259 259 259 259 259 259 259 259 260 260 260 260 260 260 260 261 261 261 260 260 261 261 261 261 262 262 262 263 264 265 266 267 269 270 272 274 277 278 279 279 279 278 279 279 280 280 281 281 283 283 283 282 281 281 281 281 281 281 281 281 281 282 281 280
267 266 265 263 262 261 261 261 260 262 262 261 261 261 262 262 261 261 260 259 259 259 259 258 259 259 258 259 259 259 260 259 260 260 260 261 260 260 260 260 262 262 261 261 260 261 262 262 263 263 263 264 265 267 269 275 275 278 278 278 278 278 278 278 280 281 280 280 280 281 280 280 279 278 278 278 279 279 279 280 280 280 281 280 279
265 265 263 262 262 261 260 260 260 261 261 261 261 261 261 261 261 260 260 259 258 258 258 258 258 258 258 259 259 259 259 259 259 259 259 260 263 266 265 262 262 265 268 269 269 264 264 265 264 265 265 264 265 267 273 275 276 278 279 280 281 281 281 280 280 282 281 279 279 279 278 277 277 277 277 277 277 278 278 278 278 280 280 279 277
264 262 261 261 260 260 259 259 260 261 260 260 260 260 260 260 260 260 260 259 258 258 258 257 258 258 258 258 258 258 259 259 259 259 259 259 259 261 266 268 268 267 268 269 270 271 271 271 268 266 268 272 273 274 275 275 276 277 278 279 280 280 281 282 282 280 278 278 277 277 276 277 276 276 276 276 277 277 277 277 277 278 279 278 276
Wind_Speed
7 12 13 14 14 13 12 12 12 12 12 11 9 7 4 2 1 1 1 3 4 5 5 6 6 6 6 7 7 6 7 7 7 7 7 6 7 7 7 8 8 9 9 9 9 8 7 7 7 7 7 8 8 9 8 8 8 8 7 7 9 7 6 6 7 7 7 5 3 3 3 2 2 2 4 3 3 3 4 4 3 3 3 3 3
13 13 14 14 15 16 13 12 13 14 13 13 12 10 8 6 4 2 2 3 4 4 4 4 5 5 5 5 5 5 5 6 6 6 6 5 6 6 6 8 8 9 9 9 9 9 9 8 7 8 8 8 8 8 8 7 9 8 7 7 6 8 7 8 8 8 5 6 5 4 3 3 3 4 4 5 4 4 4 4 4 4 4 4 3
13 14 14 14 16 17 14 13 13 13 13 13 12 12 11 9 7 4 2 1 1 3 3 3 3 4 4 3 3 3 3 3 3 3 4 5 4 4 5 6 7 7 8 9 9 10 10 9 8 8 9 8 8 9 9 9 9 10 10 9 8 6 5 6 9 9 6 6 5 4 4 4 3 4 5 6 6 5 4 4 5 4 5 4 4
14 15 15 15 15 15 15 15 14 12 12 13 13 13 10 10 9 8 5 3 2 1 2 2 2 2 2 2 1 2 1 1 1 1 2 3 5 5 5 6 7 7 8 8 7 8 10 10 8 9 10 10 9 10 10 11 10 10 10 10 9 8 7 8 9 10 6 9 7 6 4 4 3 7 7 6 7 6 6 6 5 5 5 4 3
13 15 16 16 17 17 16 14 13 13 13 13 13 12 9 12 11 9 7 7 5 5 2 2 0 1 2 2 1 1 0 1 2 4 4 5 5 5 6 7 7 8 8 10 9 9 9 9 8 8 9 10 9 9 10 11 11 11 13 11 12 10 9 7 8 10 9 8 5 5 2 3 6 1 8 4 6 6 7 6 6 6 6 5 4
15 14 14 14 14 14 15 16 16 15 15 14 12 12 12 12 12 11 9 9 9 7 5 3 2 2 2 2 3 3 4 4 5 5 5 5 6 6 6 7 8 8 8 9 9 9 10 10 9 8 8 8 9 10 9 9 11 12 13 12 13 12 10 8 8 9 10 8 4 2 1 2 3 6 7 3 5 5 5 7 6 7 6 5 5
13 14 13 14 15 15 17 17 16 16 15 13 11 11 14 14 14 12 10 9 9 8 7 5 3 3 3 3 4 4 4 3 3 3 3 3 3 5 5 6 8 8 9 9 9 9 10 9 9 9 8 8 9 10 10 11 10 12 11 12 12 12 10 10 12 10 6 6 7 4 2 3 3 7 5 6 4 4 6 7 7 7 6 6 6
11 13 14 13 14 15 16 16 15 14 11 10 10 11 15 17 16 14 11 11 10 9 8 7 6 5 4 4 4 4 4 5 5 3 2 2 2 3 4 4 6 7 8 8 9 10 10 10 10 9 9 9 9 10 10 9 7 9 11 13 10 12 13 11 11 10 13 10 10 4 3 1 3 4 3 4 3 6 6 5 6 7 7 7 7
13 12 14 14 14 14 12 13 13 12 11 11 11 12 14 15 15 14 13 12 12 13 10 8 7 6 6 5 5 5 5 4 5 4 3 2 3 3 4 4 5 7 8 8 8 9 9 10 10 10 10 10 9 9 10 9 10 10 11 12 12 11 11 11 10 11 12 10 10 7 6 5 4 4 3 1 3 4 5 8 7 6 6 7 8
11 12 11 11 11 11 11 11 14 13 11 10 10 12 15 14 16 16 15 12 12 13 12 11 9 7 6 6 6 6 6 6 5 5 4 3 3 3 4 4 4 5 7 8 8 9 10 10 9 10 10 10 9 10 11 11 10 11 13 13 13 12 10 12 12 10 11 12 11 10 10 7 5 4 4 4 4 3 2 8 8 10 8 8 8
10 11 11 10 10 11 12 14 12 11 9 11 13 15 15 15 15 17 16 13 14 13 13 12 10 9 8 8 7 7 7 6 6 6 6 6 5 5 4 4 5 5 5 7 9 9 9 9 9 10 9 9 9 9 11 11 9 9 10 12 13 13 11 11 11 10 9 12 11 11 12 13 14 12 11 8 7 5 4 5 7 9 8 5 9
10 10 10 10 10 11 10 10 10 11 13 14 14 15 15 15 15 16 16 16 14 14 14 13 11 11 10 9 8 8 7 6 7 7 7 8 7 6 5 4 5 5 6 6 7 9 8 8 9 9 9 10 10 9 9 10 8 8 8 9 11 13 12 11 11 12 11 9 13 10 12 12 11 11 10 9 10 9 7 6 6 6 4 5 4
10 9 9 9 9 9 10 10 10 13 14 16 16 14 13 14 15 15 16 15 14 13 14 13 13 12 11 11 9 8 8 8 7 7 7 7 7 7 7 6 5 5 5 6 7 8 8 8 9 9 9 10 10 9 9 11 10 9 10 11 13 13 14 14 12 14 13 11 11 12 10 11 12 11 10 9 8 8 7 7 4 8 5 4 3
9 9 8 8 9 9 9 9 10 12 14 14 13 13 12 12 13 13 13 13 12 12 12 12 12 11 11 10 9 8 8 7 7 7 7 7 7 8 7 7 7 7 7 7 7 7 8 8 8 9 9 9 9 10 10 10 10 10 10 11 13 13 13 15 14 13 14 13 10 9 11 11 11 10 11 9 9 8 8 9 4 3 3 4 3
8 8 9 9 9 8 7 8 10 12 13 12 11 11 10 11 11 13 13 13 13 12 11 12 10 10 10 9 8 8 7 7 7 7 7 8 8 8 8 8 8 8 8 8 7 7 7 8 8 9 9 9 9 9 8 10 10 10 10 11 10 11 12 13 13 14 14 15 14 12 11 11 10 10 10 11 9 10 9 7 7 7 2 4 4
7 7 7 8 7 6 7 9 10 11 12 11 13 11 11 11 11 11 12 11 11 11 11 10 10 9 10 10 9 8 7 6 6 6 7 7 7 7 8 8 8 9 9 8 8 7 6 7 8 9 9 9 9 9 9 9 9 10 10 10 12 9 11 13 13 13 15 15 15 14 11 11 10 10 10 10 9 9 8 7 7 9 9 5 5
6 6 5 6 7 8 9 11 11 11 11 11 11 10 10 10 10 12 12 12 12 11 10 9 8 9 10 10 10 9 9 8 7 7 7 7 6 7 7 8 8 8 8 8 9 8 7 7 7 8 9 9 9 9 9 8 9 9 10 11 11 10 11 13 12 13 13 13 13 15 14 12 11 10 9 9 8 8 7 7 8 10 8 9 6
5 5 5 7 8 10 11 10 11 11 10 9 9 8 8 8 10 11 11 12 12 11 11 10 11 10 10 10 10 9 8 7 8 7 6 6 6 7 7 7 8 8 8 8 8 9 8 8 6 6 6 7 8 8 8 8 8 9 10 11 11 9 11 11 12 12 13 12 13 13 12 12 11 10 11 11 10 10 8 8 8 8 8 11 8
4 6 6 8 9 9 9 9 9 9 9 8 7 7 7 7 8 8 8 8 8 7 8 7 8 7 7 9 9 9 9 8 8 8 7 7 7 7 6 6 6 7 7 7 7 7 7 7 6 7 7 7 7 8 8 8 8 9 9 9 10 10 11 12 12 12 12 12 13 15 14 14 12 12 11 11 11 10 9 8 8 8 9 10 10
4 5 6 6 6 6 6 7 7 7 6 6 5 5 7 8 8 8 7 7 7 6 5 6 6 6 6 6 6 7 7 8 8 9 9 9 9 9 8 7 7 6 6 6 6 6 7 8 7 7 7 7 7 8 8 8 8 9 9 9 9 11 12 13 11 11 10 12 14 15 15 14 13 12 12 11 11 11 10 9 9 9 9 10 8
3 3 3 2 2 2 3 1 2 2 1 2 2 3 4 4 4 4 4 5 6 6 5 5 5 6 7 8 7 6 8 8 9 8 8 7 7 7 8 7 7 7 7 7 7 7 7 7 7 7 7 7 7 7 7 8 9 9 9 10 10 11 13 12 12 13 11 12 14 14 15 15 13 13 13 11 12 12 11 10 10 9 10 9 9
3 3 2 2 1 1 1 1 1 1 1 1 2 1 2 2 2 3 3 5 6 7 7 7 6 6 6 7 7 7 8 8 9 8 8 7 7 7 7 8 7 7 7 7 7 6 7 7 7 7 7 7 8 8 8 7 8 9 10 8 9 11 12 13 12 14 13 10 12 15 16 14 12 15 14 14 13 12 12 13 12 11 11 11 10
2 2 2 1 1 2 2 2 2 3 3 3 3 3 4 5 5 6 8 9 9 8 8 7 7 7 7 6 6 6 7 7 7 7 8 8 8 8 7 8 8 8 9 8 8 8 8 7 8 8 8 8 7 8 7 8 9 9 10 9 9 11 12 12 13 14 14 12 13 15 16 13 10 13 15 15 13 14 13 14 15 12 13 12 10
1 0 1 1 1 1 1 2 3 3 4 5 5 6 6 7 7 7 9 9 9 9 9 9 9 9 9 8 8 6 5 6 6 6 7 7 6 6 7 7 8 8 9 8 9 9 8 8 8 8 8 8 8 8 8 8 9 9 10 11 10 11 12 13 13 13 13 13 14 15 15 14 12 14 15 14 14 14 14 14 14 13 13 13 10
3 4 4 4 4 5 5 5 5 6 6 7 7 7 7 7 7 7 7 8 8 8 9 9 9 10 10 9 9 8 8 8 7 6 6 6 6 7 7 8 8 8 8 9 8 8 8 8 7 8 9 9 9 9 9 9 8 8 10 11 11 11 11 13 14 14 13 14 14 15 16 13 13 15 16 15 15 16 14 14 14 14 13 12 9
4 4 5 6 6 6 7 8 7 7 7 7 7 7 8 8 9 8 8 8 8 7 8 8 8 9 9 10 9 9 9 8 8 7 7 7 6 6 6 6 7 8 8 7 8 8 8 9 9 9 9 10 9 9 9 10 10 9 9 10 10 11 12 12 12 13 13 13 14 15 15 13 14 16 17 16 14 16 15 14 15 14 13 12 12
2 2 3 4 4 6 6 7 7 8 8 7 7 8 7 8 8 9 8 8 9 9 9 9 8 8 8 8 9 9 9 9 9 8 7 7 8 8 7 7 6 7 7 7 7 7 7 8 9 8 8 9 9 9 9 9 9 10 11 11 10 11 12 11 12 12 12 14 15 15 15 14 16 17 17 17 16 15 13 15 16 15 13 12 13
4 4 4 4 5 4 5 5 6 6 6 6 7 7 7 7 7 7 7 6 6 7 8 9 9 8 8 8 8 8 8 8 8 9 9 9 8 7 8 8 8 7 6 7 7 8 8 7 8 8 8 8 8 8 9 9 9 10 10 10 11 11 12 13 13 13 13 14 15 15 15 15 16 16 17 16 16 15 13 15 15 13 13 13 13
5 5 4 5 4 5 5 5 5 6 6 7 6 6 6 6 7 7 7 6 7 7 8 8 9 9 9 8 8 8 7 7 8 8 9 9 9 9 9 8 8 9 8 8 7 7 8 8 8 8 8 7 7 7 6 7 8 10 10 10 11 11 12 12 13 13 14 14 14 14 14 15 16 19 21 19 18 16 13 14 15 13 12 12 12
5 5 5 5 5 6 6 6 7 7 7 7 7 7 6 7 7 7 7 7 7 8 9 9 9 9 9 9 10 9 9 8 8 8 9 10 10 9 9 10 12 10 9 9 10 10 9 8 8 8 7 6 6 6 8 14 13 10 9 9 10 11 11 12 13 13 14 14 14 14 14 19 19 20 22 23 22 21 21 18 14 13 13 13 13
6 5 6 6 6 6 6 6 6 7 7 7 7 7 7 7 7 7 7 7 7 8 9 9 10 10 9 9 9 9 9 9 9 8 8 8 11 9 9 9 9 9 12 12 11 10 10 9 9 8 8 7 6 6 11 12 14 17 13 10 10 11 11 12 13 14 14 14 14 14 14 15 17 18 19 23 22 23 24 25 24 20 17 16 15
7 6 6 6 6 6 6 7 7 7 7 7 6 6 7 8 8 8 7 6 6 8 9 9 10 10 10 10 10 10 11 9 7 7 8 8 9 9 9 10 11 11 10 10 13 13 12 10 9 10 9 8 7 9 12 13 14 15 14 11 9 10 11 12 13 14 13 13 14 14 13 11 12 14 14 14 19 24 25 24 24 23 22 24 22
8 8 7 7 7 7 7 7 7 7 7 7 7 7 7 7 7 7 7 7 8 8 9 10 10 10 11 10 11 10 9 9 7 7 7 8 9 11 10 10 10 9 11 13 13 13 14 14 12 11 10 10 10 10 12 15 15 15 16 14 9 10 11 12 13 14 14 14 13 13 13 12 11 16 14 13 14 15 20 25 24 24 24 26 27
9 9 8 7 6 6 7 8 8 8 8 7 7 7 8 7 7 6 7 7 8 8 9 10 10 10 10 10 11 10 11 11 9 8 8 10 10 10 10 9 9 9 10 10 11 14 14 13 12 12 12 11 11 13 14 15 16 17 17 15 9 11 11 12 14 14 14 14 14 14 13 13 13 11 11 13 13 13 12 14 16 16 16 20 24
11 11 10 8 8 8 9 9 9 9 8 7 7 7 7 7 7 8 8 10 10 11 10 10 11 12 11 10 10 10 11 11 10 9 9 11 12 11 11 8 7 9 10 11 12 13 12 13 12 12 12 13 12 17 18 18 17 17 17 15 9 10 10 11 13 14 15 15 16 14 15 15 13 12 12 14 13 12 10 11 13 15 16 16 16
11 12 13 12 10 10 10 10 8 7 7 7 8 8 8 8 8 9 10 9 10 10 13 11 10 11 10 12 10 11 11 11 10 7 9 12 13 13 13 9 7 8 9 9 11 12 13 14 14 14 13 14 14 18 17 18 18 18 18 10 9 10 10 11 12 13 14 14 14 15 15 15 14 13 15 21 19 13 10 12 15 15 15 14 15
11 12 13 14 13 12 10 8 7 8 8 8 8 8 8 8 9 8 9 10 11 11 12 12 11 12 12 12 12 11 12 11 10 10 12 13 13 15 13 7 9 10 11 11 12 13 13 13 14 14 14 14 14 17 19 18 18 19 13 8 9 9 10 12 13 13 13 13 14 14 15 15 15 14 16 17 18 19 12 14 15 15 14 13 14
11 12 13 14 12 10 10 9 10 10 9 9 9 9 9 8 10 10 10 11 11 12 12 12 13 12 13 11 10 11 12 12 12 13 13 12 12 12 13 8 9 12 13 14 12 13 14 13 14 14 14 14 16 18 22 20 21 20 15 10 9 10 11 12 12 13 12 12 15 21 19 16 16 15 16 16 20 18 15 15 15 15 15 16 15
11 12 12 9 9 9 10 10 10 12 12 11 10 9 9 9 10 12 11 11 11 13 13 12 14 13 12 12 11 11 13 13 13 13 13 15 15 14 12 9 10 11 12 13 12 13 15 14 14 15 19 19 16 18 23 24 25 22 16 10 10 9 11 12 12 12 12 12 13 15 21 21 19 16 19 19 22 19 15 15 15 14 16 18 17
12 9 9 10 10 9 10 11 11 12 12 11 9 8 8 10 12 12 11 11 12 13 13 14 15 15 12 10 11 13 15 15 15 15 14 14 13 12 12 11 11 11 12 12 12 14 17 16 15 15 15 16 17 17 20 27 25 25 22 13 9 9 11 13 12 11 12 12 12 13 15 22 26 25 22 21 23 25 17 14 13 14 16 20 13
8 7 8 7 8 8 9 11 10 10 10 9 8 9 10 11 12 12 12 13 13 14 14 14 14 14 14 14 13 13 15 16 15 15 15 15 14 13 14 15 14 13 14 13 16 16 16 17 17 18 18 18 17 18 21 28 27 27 26 20 11 12 12 13 12 12 11 13 12 12 12 16 23 24 23 24 24 26 24 16 15 16 18 13 11
6 7 8 8 8 9 10 9 9 10 10 8 8 10 11 12 12 13 13 14 14 14 15 15 15 16 14 15 15 16 16 16 16 15 16 17 15 14 14 16 14 14 17 17 16 15 15 16 16 19 20 20 21 27 22 28 31 29 27 27 16 13 14 13 13 12 12 13 13 12 10 13 20 23 23 23 26 26 27 18 17 21 19 17 15
8 8 7 7 8 9 9 10 9 10 9 8 9 11 11 11 13 15 14 14 14 15 16 16 16 16 17 18 18 18 17 15 16 17 17 18 17 16 17 15 17 17 19 21 20 18 19 19 17 15 16 18 19 19 27 24 30 31 29 27 27 20 22 16 13 14 14 14 12 12 12 16 18 22 25 25 24 27 24 17 22 24 20 22 19
7 7 7 6 8 8 10 10 9 9 8 8 9 12 13 14 16 14 14 13 13 13 15 15 15 16 17 17 16 18 17 16 17 17 17 19 20 18 17 16 16 15 17 19 16 16 16 17 18 17 16 16 18 18 22 29 27 33 31 30 28 28 26 17 14 14 13 13 12 13 13 19 18 21 24 25 24 24 18 24 26 24 24 20 15
8 7 6 5 8 10 11 12 10 9 10 8 8 11 14 16 15 12 13 12 13 15 15 16 16 17 17 16 17 16 16 16 16 15 17 17 18 16 16 16 15 17 16 17 17 15 16 17 17 18 17 17 18 17 18 21 30 29 31 30 29 29 27 26 18 14 15 14 16 22 19 18 17 21 23 24 22 25 29 25 28 28 24 13 14
6 5 7 7 8 8 10 12 13 9 10 9 8 8 13 15 14 12 13 13 14 16 16 17 17 16 16 16 17 18 16 15 16 14 15 15 16 15 15 15 14 15 16 16 17 16 16 17 18 17 18 17 17 16 17 17 18 22 22 28 30 28 27 26 23 17 19 23 24 27 30 23 19 19 16 14 13 13 22 28 28 26 17 13 13
5 7 7 7 7 9 11 12 13 10 8 8 9 9 10 13 14 13 14 14 14 15 19 19 16 17 16 15 17 15 15 15 14 13 13 13 14 14 14 15 14 15 16 16 16 16 16 16 17 17 17 17 17 17 16 15 15 15 15 15 16 16 21 22 17 15 17 17 20 21 14 15 15 19 20 17 16 14 13 16 15 15 13 13 12
6 6 5 5 7 10 12 13 12 10 9 9 9 10 11 12 12 13 13 14 16 18 17 18 18 16 16 15 15 19 19 15 15 13 15 13 13 14 14 15 14 14 15 16 16 16 17 16 16 16 17 17 17 16 17 16 16 14 13 12 11 11 11 10 11 12 12 12 11 14 17 12 12 12 13 12 11 11 11 11 11 11 12 11 13
7 6 5 7 9 10 11 11 12 11 11 11 11 11 11 11 13 13 14 16 17 18 17 19 18 16 15 14 14 15 15 15 15 15 13 14 14 13 16 17 15 14 16 17 16 18 17 16 16 17 18 18 18 17 15 16 18 21 17 10 6 6 6 8 11 15 10 8 8 10 9 10 11 12 12 12 11 10 10 11 12 11 11 10 10
7 7 7 8 8 10 12 12 12 11 11 12 12 11 11 13 14 13 14 15 17 18 18 17 15 15 15 14 14 14 14 15 15 15 17 14 18 25 20 18 19 23 31 33 28 22 19 17 18 18 17 18 18 17 24 30 29 28 28 29 24 21 17 12 13 18 13 9 9 9 9 9 11 11 11 11 12 11 11 11 11 12 11 9 10
8 9 8 7 9 11 12 12 11 10 11 12 13 14 15 14 12 13 13 15 17 17 16 15 15 14 15 15 15 15 15 14 15 16 15 17 16 14 24 29 30 29 30 32 32 35 36 35 27 19 18 35 37 37 37 35 34 32 32 32 31 28 26 23 21 13 10 10 10 8 8 10 11 11 11 11 11 11 11 10 10 11 10 10 9
Wind_Direction
36 46 42 33 27 22 23 20 16 20 18 17 20 19 21 13 111 219 165 192 196 194 198 199 204 210 216 219 221 212 212 210 209 212 212 210 200 194 181 179 174 175 178 179 189 189 192 189 182 161 169 178 185 189 188 186 177 176 164 165 159 147 158 157 146 143 137 130 136 144 150 162 168 218 196 192 192 176 178 188 175 175 165 157 168
52 45 35 33 27 23 22 21 19 20 18 18 19 17 15 10 7 24 145 174 198 202 201 206 217 220 223 227 229 230 216 211 218 214 217 214 205 195 187 181 176 175 177 184 185 188 192 193 185 166 174 186 192 188 185 179 175 176 161 155 177 166 163 164 159 147 172 171 160 171 185 179 184 210 218 202 197 194 187 188 184 183 173 171 165
48 37 31 28 26 24 24 20 20 18 13 19 18 22 24 23 26 11 33 28 196 212 207 210 222 237 246 264 254 245 243 248 238 234 214 213 203 197 197 186 184 182 183 186 188 190 193 192 187 172 179 183 186 186 184 180 176 179 175 171 165 185 160 168 171 184 162 168 159 147 197 185 182 216 213 216 197 199 193 190 191 185 174 180 175
42 33 25 20 23 24 22 19 14 12 13 15 19 22 26 24 19 14 16 19 360 316 271 269 248 222 209 265 7 256 355 75 175 200 193 195 206 196 199 200 195 194 191 190 191 195 197 197 189 180 179 184 188 187 186 185 178 182 181 183 168 163 178 179 188 196 184 159 178 201 183 187 218 213 192 200 196 197 196 193 188 184 179 184 181
42 33 24 19 20 22 20 18 15 17 15 16 16 21 28 27 22 19 27 24 13 13 350 299 27 148 151 111 98 197 117 192 182 218 209 207 214 209 211 204 202 200 195 192 190 195 198 203 200 188 181 186 190 194 193 189 183 188 184 183 182 174 178 167 188 199 215 202 173 158 179 207 230 124 151 176 181 193 202 201 188 190 183 185 193
49 38 31 25 23 22 22 22 23 19 16 11 11 20 32 34 28 28 33 34 18 15 359 325 320 289 252 243 240 229 243 228 234 236 222 218 220 219 213 206 204 204 202 201 200 198 202 205 202 196 187 187 194 201 200 189 189 188 187 189 188 194 176 156 177 203 215 229 262 283 12 211 198 138 154 182 171 209 196 203 196 196 189 187 198
48 45 36 31 24 23 24 24 24 22 13 4 4 18 34 40 35 33 35 34 25 13 13 355 343 326 311 300 305 304 302 291 288 272 254 244 230 220 212 203 207 208 210 208 204 200 204 207 207 206 197 195 198 205 203 198 191 192 185 195 193 190 179 181 181 180 195 238 232 221 202 186 281 142 197 114 184 194 207 191 205 196 198 198 203
52 43 36 33 30 28 26 23 24 21 10 5 13 21 34 39 37 33 34 33 27 19 19 15 355 2 352 331 313 307 308 313 323 328 308 279 257 223 217 210 205 212 217 216 214 208 204 207 206 204 204 204 198 210 210 205 187 193 195 198 194 196 193 193 184 177 180 205 206 191 205 269 294 296 280 194 164 159 192 199 203 196 200 208 210
53 47 36 31 30 29 27 28 25 23 19 18 20 28 37 39 37 34 34 32 26 24 20 21 19 4 358 353 344 335 326 316 313 314 308 287 256 237 226 228 215 215 219 221 218 218 210 213 212 209 208 209 203 207 210 209 201 185 189 194 201 200 201 200 188 187 189 194 176 203 203 206 216 237 257 286 214 156 174 179 188 182 206 215 212
59 59 52 40 32 30 27 29 29 24 19 16 26 36 41 39 37 34 33 31 25 25 24 22 21 16 11 12 358 344 339 332 330 324 315 303 279 253 243 235 234 219 219 221 220 219 218 214 217 215 213 212 210 208 210 213 210 202 197 201 205 207 207 206 205 194 196 197 192 184 192 199 211 211 226 224 259 247 188 186 175 173 191 216 198
52 49 48 49 40 33 24 27 25 24 22 22 28 34 37 37 34 36 33 31 27 26 24 23 22 19 18 9 2 352 348 336 327 323 320 313 301 291 267 252 239 232 218 219 222 220 222 220 219 220 219 217 215 214 213 208 201 196 195 202 206 209 210 209 212 210 196 202 197 196 195 195 198 200 205 205 205 207 228 175 179 183 191 174 197
54 44 35 30 31 32 32 29 26 26 28 29 30 31 34 33 33 35 33 31 29 26 27 27 22 20 15 10 5 2 353 347 338 329 326 318 310 298 292 276 259 244 228 226 222 221 219 221 222 225 223 221 220 214 212 213 211 200 192 192 201 209 215 212 214 217 204 202 207 204 206 204 208 211 208 203 200 215 205 205 173 162 192 198 150
51 51 39 29 28 26 26 22 22 28 31 30 29 29 29 32 32 36 36 34 34 32 32 28 27 21 14 10 6 359 356 352 340 336 331 321 318 313 306 297 287 266 248 234 227 217 214 217 220 219 222 222 222 219 217 215 218 211 202 203 206 206 210 211 211 212 211 206 204 209 209 205 212 214 213 207 209 210 204 215 174 163 165 151 158
48 46 48 42 31 27 23 21 26 30 32 32 29 30 27 28 28 32 35 34 36 38 36 37 35 28 20 15 8 2 2 354 349 344 341 333 328 321 316 309 303 295 285 262 248 221 216 219 220 223 224 226 221 222 218 216 216 221 208 211 210 212 211 215 220 218 219 219 212 208 210 210 214 212 214 213 207 199 209 206 150 173 165 145 139
51 43 38 35 31 26 24 26 29 33 32 31 29 27 29 30 28 29 32 29 31 32 33 37 37 35 32 25 19 7 3 359 355 352 341 337 331 325 319 314 307 304 300 296 276 245 222 221 222 225 225 224 224 223 219 221 216 220 218 218 217 215 219 217 221 219 221 220 219 217 212 215 213 211 211 219 211 207 207 196 158 151 155 143 165
47 48 42 35 32 25 27 33 38 35 32 29 26 23 22 21 22 27 30 28 27 26 29 28 29 28 30 30 26 21 15 7 3 358 347 338 330 323 316 312 309 308 306 302 294 267 239 228 229 228 227 226 223 223 218 217 214 220 227 223 223 216 221 221 224 222 225 222 222 224 222 222 217 214 213 217 213 207 208 203 180 180 181 193 173
48 43 35 28 29 29 29 31 31 32 32 28 23 20 22 18 18 21 23 24 23 22 24 24 23 27 25 23 20 18 19 18 11 1 351 344 335 328 321 318 314 311 307 306 298 284 261 241 237 237 233 229 228 225 222 221 220 224 226 225 226 219 220 223 222 224 227 224 228 225 225 227 221 221 221 218 216 215 212 210 202 200 193 206 188
58 50 34 27 27 26 27 26 26 24 23 20 16 12 14 19 17 24 22 21 17 15 15 14 13 16 16 16 15 15 13 14 15 10 3 354 349 341 332 328 325 318 308 299 292 288 283 265 249 243 242 239 232 229 226 223 221 225 224 228 230 222 225 228 224 224 227 225 229 228 227 231 226 220 223 219 220 219 215 215 217 210 201 215 204
45 36 29 26 24 23 19 18 16 18 14 14 6 9 20 24 25 28 25 20 15 12 8 16 17 16 13 11 8 7 5 6 7 11 11 7 4 353 339 328 316 308 302 297 292 286 279 270 258 249 242 237 235 233 228 226 220 226 225 230 227 228 233 232 228 222 226 223 226 227 226 229 226 226 225 222 222 219 219 218 220 212 214 217 220
32 29 28 22 24 16 10 3 4 4 7 360 350 353 14 16 16 22 23 19 16 17 9 16 14 13 13 13 12 8 3 7 7 11 10 7 2 355 348 343 329 315 306 301 295 289 286 282 272 260 252 244 238 232 227 227 226 228 229 229 225 220 230 233 233 226 226 225 228 228 226 225 222 225 227 222 219 219 217 218 218 216 218 217 212
36 30 27 23 357 354 330 317 284 270 268 282 298 359 11 9 14 11 14 5 11 9 9 14 13 12 12 13 8 3 5 8 8 14 12 4 360 354 350 339 326 324 320 314 306 302 296 286 276 267 259 252 246 242 232 226 227 231 231 232 231 225 226 230 232 233 226 227 231 231 231 229 222 223 226 222 223 219 216 222 219 216 219 213 207
30 22 9 1 323 294 245 259 261 257 275 326 331 354 1 15 15 357 5 15 7 5 7 3 5 2 7 12 11 8 8 5 6 3 6 357 355 352 348 339 339 327 330 320 317 311 305 299 290 280 270 256 250 245 239 234 234 232 230 228 233 235 235 233 229 232 227 223 227 233 236 232 223 226 227 224 221 218 216 217 218 214 217 215 205
313 309 289 253 285 272 275 304 322 343 351 357 2 6 5 7 10 11 11 10 7 0 359 357 357 1 3 2 5 9 9 10 5 359 360 352 350 347 346 343 342 340 338 337 324 319 311 304 298 293 285 277 266 257 246 238 237 236 236 233 229 232 235 237 235 234 231 227 228 232 235 230 224 227 227 226 220 219 217 218 220 214 218 216 206
103 79 303 233 222 248 249 11 2 9 6 5 7 10 9 10 11 9 8 5 2 357 354 349 350 351 353 358 3 1 3 4 4 356 354 348 340 339 339 340 338 337 338 335 333 325 319 310 304 297 290 284 278 268 260 250 241 239 241 241 237 233 234 237 239 239 236 233 233 236 236 228 223 229 230 228 226 220 216 217 218 215 216 215 205
24 26 15 14 14 8 11 12 11 8 7 2 2 4 3 4 9 7 5 2 358 351 351 345 344 344 342 347 350 355 357 355 351 344 343 340 339 341 339 336 337 333 330 328 326 329 324 318 308 302 298 292 286 280 273 264 254 246 245 244 243 242 239 239 240 241 239 236 236 236 239 231 225 231 233 228 225 222 221 217 216 215 213 211 200
359 3 352 357 353 352 356 358 358 1 3 359 358 358 355 355 356 358 355 355 354 351 347 344 340 340 337 337 339 339 343 349 347 344 336 333 330 330 334 332 333 327 323 323 319 320 318 313 308 300 296 296 294 288 281 276 271 264 256 248 246 246 248 246 244 243 243 240 240 240 240 233 229 229 235 232 228 225 224 223 222 218 213 205 204
289 307 314 314 323 333 336 340 342 343 346 348 348 351 351 351 348 348 348 345 345 345 344 342 336 335 332 331 333 332 329 330 332 334 332 329 328 326 322 322 321 316 313 311 312 311 309 305 301 295 290 288 290 290 289 283 277 273 269 261 253 252 252 250 249 249 245 245 243 243 242 236 234 233 236 234 231 231 226 226 223 220 212 204 204
230 245 246 268 274 285 295 307 316 318 325 328 334 335 340 338 338 335 335 336 333 337 334 333 332 330 328 329 328 323 319 317 322 322 320 318 320 322 320 315 312 308 304 305 305 303 300 298 294 293 286 280 276 276 276 279 279 278 273 268 263 259 257 254 254 251 249 245 244 244 242 239 236 237 238 239 233 233 226 229 227 221 215 207 207
236 248 250 255 266 275 287 292 297 306 308 315 316 317 318 324 323 326 325 331 331 330 329 327 328 326 328 328 324 320 314 313 319 317 313 312 313 314 313 311 309 307 303 301 295 290 293 292 286 283 285 280 272 263 263 265 269 271 273 271 266 262 261 262 259 255 252 251 249 245 243 242 238 240 238 236 233 229 229 233 230 219 215 210 211
258 274 280 280 276 283 279 284 287 291 301 303 307 305 309 309 309 312 317 321 333 330 328 326 323 322 322 325 323 319 315 315 316 312 315 311 307 307 309 314 313 307 304 305 305 298 288 281 284 281 275 274 267 261 249 251 253 258 264 266 267 266 264 265 264 262 258 253 251 250 247 243 240 238 239 238 236 233 231 230 230 214 212 213 211
263 277 287 288 284 284 285 284 288 292 293 297 295 298 297 294 293 299 303 313 324 323 320 321 318 317 318 316 317 312 310 310 309 312 313 314 310 306 306 304 303 304 309 309 304 301 299 294 289 283 284 279 268 262 258 252 248 253 257 259 260 261 260 259 260 261 260 257 256 254 252 246 241 238 237 236 235 234 233 233 232 223 215 212 210
271 278 282 284 283 280 282 282 284 284 284 284 285 286 288 284 289 294 297 304 307 304 306 304 305 309 309 311 309 310 306 299 299 300 305 310 306 300 298 302 306 305 305 307 306 302 299 293 290 287 280 274 276 272 266 268 266 256 253 255 258 258 257 255 255 256 258 259 258 256 252 252 245 241 238 234 232 231 232 232 231 228 224 221 217
276 275 280 276 277 280 279 279 275 271 270 268 271 274 273 278 286 291 294 293 292 294 296 297 298 299 299 299 301 302 301 298 292 290 294 301 301 295 291 292 294 299 302 302 300 301 301 298 293 286 287 289 285 276 278 277 272 267 263 259 258 255 253 254 253 254 255 256 257 256 257 252 250 243 236 233 233 231 229 230 230 229 227 223 222
282 275 279 282 278 281 281 280 278 274 269 270 265 268 271 274 277 282 287 283 282 281 282 284 287 286 285 287 289 289 288 288 288 294 296 295 297 291 287 287 290 295 291 291 294 295 293 290 290 294 293 288 282 285 280 276 275 272 270 268 259 256 254 254 254 252 253 254 253 254 256 255 252 244 235 235 234 231 226 221 225 226 227 228 225
298 288 281 279 284 287 291 294 298 303 304 296 294 294 300 305 309 309 308 299 290 284 275 273 278 279 279 279 279 278 278 278 277 281 288 290 293 295 286 278 282 286 287 290 292 293 291 290 288 286 286 286 283 282 283 276 274 276 276 274 266 262 257 253 253 252 251 252 253 253 252 254 251 245 244 238 234 230 223 218 217 220 223 223 221
314 306 297 290 290 294 296 299 310 320 317 322 318 322 320 315 317 307 299 292 287 285 283 278 279 277 275 273 273 277 276 275 268 266 277 285 291 291 287 282 284 279 277 278 281 282 287 288 286 283 282 281 281 278 276 277 276 275 278 273 267 264 262 258 256 254 251 250 251 250 253 252 248 244 239 237 235 227 216 216 218 221 222 222 225
309 309 305 303 299 295 300 319 336 338 338 333 332 331 322 314 305 296 294 290 288 284 282 280 284 283 284 283 280 279 278 276 265 267 275 280 284 287 282 277 288 287 284 282 282 283 281 281 282 281 279 278 278 276 273 271 271 272 274 270 271 269 265 263 260 258 254 251 249 245 246 250 248 245 238 228 218 218 221 217 221 222 223 221 226
318 316 313 309 313 338 3 357 339 335 338 337 332 324 314 309 305 303 301 296 294 292 292 292 290 290 290 285 281 282 281 278 272 271 277 282 283 283 277 279 281 284 286 284 284 283 281 278 277 278 277 280 280 278 276 272 269 268 261 259 262 264 264 264 266 260 256 254 250 245 241 244 245 243 240 220 210 200 218 219 222 223 223 226 226
320 321 330 5 7 354 340 340 338 332 331 334 333 326 318 313 311 305 302 300 301 300 301 300 297 295 292 291 291 291 288 287 281 277 283 286 284 281 274 278 276 276 275 281 282 281 281 280 278 276 278 277 276 277 277 275 270 265 259 254 255 255 256 258 262 263 260 254 255 247 239 238 241 241 235 215 210 199 216 216 220 221 224 227 221
321 355 21 348 346 347 334 333 332 326 334 339 337 329 318 316 312 311 305 303 304 305 305 304 300 294 292 292 295 295 292 290 287 286 288 286 284 281 276 276 276 274 274 276 277 275 279 279 278 279 280 278 278 277 275 272 267 263 255 250 248 250 251 256 255 256 259 258 257 255 241 241 241 238 231 213 212 203 211 216 218 221 224 230 207
7 21 358 340 329 326 324 325 326 335 342 344 340 330 318 316 313 309 307 308 309 308 304 300 296 293 292 291 292 294 297 294 292 291 290 286 281 277 279 279 278 277 273 271 273 274 275 278 277 276 274 271 269 270 271 270 266 261 253 245 245 243 248 252 256 254 253 257 257 251 247 241 240 237 225 213 213 210 208 213 215 225 224 224 173
353 350 340 325 323 323 325 331 341 350 343 338 340 325 317 315 310 303 307 308 308 308 307 303 299 297 300 302 303 300 296 293 291 289 286 282 279 276 275 278 274 272 271 272 272 273 273 270 272 274 273 270 268 265 266 268 265 261 253 243 239 243 238 248 250 252 252 253 252 251 249 239 233 230 226 215 213 215 213 210 218 223 224 201 183
334 328 337 346 329 326 329 335 338 336 335 335 339 319 308 307 300 305 311 311 315 313 310 307 304 305 306 305 302 301 299 299 295 292 289 287 286 284 280 278 276 274 271 271 269 269 271 267 268 265 267 269 269 267 263 262 261 256 249 244 238 236 239 239 242 248 247 249 250 249 249 242 231 222 223 218 217 218 218 217 216 219 216 198 189
327 337 350 13 334 330 324 323 331 328 332 335 330 316 310 308 304 313 314 313 312 311 309 305 303 302 303 302 302 301 299 297 295 293 290 286 285 283 280 277 276 273 274 272 269 264 263 263 267 265 258 260 266 267 264 261 259 256 253 248 243 239 236 236 234 242 246 247 250 246 243 241 225 219 220 221 221 219 219 224 227 221 214 200 196
332 346 12 10 343 326 323 316 321 327 320 321 322 314 307 301 303 313 312 313 312 310 307 301 300 300 298 298 298 295 295 293 289 288 285 283 279 277 277 275 272 270 268 267 267 266 263 265 267 265 266 266 266 265 264 262 260 256 253 248 243 240 239 237 239 240 242 245 244 249 246 240 222 214 216 220 224 226 226 225 227 225 219 207 201
351 346 2 351 333 320 312 308 311 324 316 316 312 308 301 298 307 310 309 308 308 305 300 297 297 293 293 295 294 292 287 284 285 284 280 279 281 281 278 277 274 271 270 268 268 269 268 268 268 267 268 269 270 269 265 260 255 255 254 250 247 243 240 238 237 239 240 243 247 250 252 241 211 209 212 215 221 222 225 228 229 226 217 210 202
343 342 350 335 331 315 311 311 308 317 314 310 310 301 294 299 305 305 305 303 298 298 297 296 294 295 294 295 292 292 292 289 286 285 281 282 282 281 280 279 277 277 274 271 271 271 271 271 272 273 274 273 270 268 265 260 257 256 254 251 246 244 240 240 239 241 245 248 249 250 244 222 221 212 210 212 218 216 215 221 225 224 221 211 202
337 329 339 323 314 309 308 311 308 312 310 304 298 296 297 300 299 301 301 300 298 296 295 295 295 294 293 293 290 291 290 289 288 286 286 285 281 278 278 276 278 279 279 278 276 273 273 273 275 276 278 277 274 273 269 267 267 264 262 257 246 236 228 222 231 234 236 241 241 247 243 225 213 212 215 213 216 214 210 211 214 216 221 213 204
321 317 328 318 312 305 302 304 301 304 303 300 296 295 300 302 303 304 304 302 300 298 298 298 297 294 291 291 289 289 289 288 289 286 280 279 280 280 277 276 268 266 267 272 273 272 272 274 275 276 277 276 274 273 276 285 283 279 276 276 254 239 227 226 229 233 236 235 236 237 231 220 208 208 210 212 211 207 206 205 207 211 213 207 193
312 312 313 307 303 301 301 300 297 300 298 299 298 296 302 305 304 303 302 299 301 302 299 295 294 293 292 291 290 290 290 288 287 287 287 280 273 274 276 277 279 275 274 273 273 273 272 269 269 263 259 266 272 273 278 278 277 277 275 271 267 262 255 250 241 239 239 237 235 230 217 208 207 206 208 205 204 202 201 202 206 208 208 203 193
311 309 307 307 304 302 298 294 296 301 302 302 302 304 304 302 299 297 300 301 301 299 297 295 294 292 292 293 292 290 287 285 286 286 285 286 287 279 275 277 278 279 278 278 278 277 278 277 274 272 264 267 268 269 269 269 271 271 270 268 269 270 269 265 257 253 244 237 236 222 208 207 208 202 198 201 201 200 198 198 199 199 204 198 185